When you browse on this site, cookies collect data to enhance your experience and personalize the content and advertising you see.
Visit our Privacy Policy to learn more. By continuing to use the site, you agree to this use of cookies and data.
EN

Hourly Weather Gross-Umstadt

Today, 12 July, Sunday

Time Temperature Precipitation Wind Pressure Humidity
00:00 +14°C° 0 mm 1 mps 753 mmHg 66%
01:00 +13°C° 0 mm 1 mps 753 mmHg 70%
02:00 +13°C° 0 mm 1 mps 753 mmHg 72%
03:00 +12°C° 0 mm 1 mps 753 mmHg 75%
04:00 +12°C° 0 mm 1 mps 753 mmHg 77%
05:00 +13°C° 0 mm 1 mps 753 mmHg 73%
06:00 +15°C° 0 mm 1 mps 753 mmHg 69%
07:00 +16°C° 0 mm 1 mps 754 mmHg 65%
08:00 +19°C° 0 mm 1 mps 754 mmHg 59%
09:00 +20°C° 0 mm 1 mps 754 mmHg 52%
10:00 +21°C° 0 mm 2 mps 754 mmHg 46%
11:00 +23°C° 0 mm 2 mps 754 mmHg 43%
12:00 +24°C° 0 mm 2 mps 754 mmHg 40%
13:00 +25°C° 0 mm 2 mps 754 mmHg 36%
14:00 +25°C° 0 mm 2 mps 753 mmHg 37%
15:00 +25°C° 0 mm 2 mps 753 mmHg 37%
16:00 +25°C° 0 mm 2 mps 752 mmHg 37%
17:00 +24°C° 0 mm 2 mps 752 mmHg 43%
18:00 +23°C° 0 mm 2 mps 753 mmHg 48%
19:00 +21°C° 0 mm 2 mps 753 mmHg 54%
20:00 +19°C° 0 mm 2 mps 753 mmHg 58%
21:00 +18°C° 0 mm 2 mps 753 mmHg 63%
22:00 +16°C° 0 mm 2 mps 753 mmHg 67%
23:00 +15°C° 0 mm 2 mps 753 mmHg 70%

Tomorrow, 13 July, Monday

Time Temperature Precipitation Wind Pressure Humidity
00:00 +15°C° 0 mm 2 mps 753 mmHg 73%
01:00 +14°C° 0 mm 2 mps 753 mmHg 75%
02:00 +14°C° 0 mm 2 mps 752 mmHg 78%
03:00 +13°C° 0 mm 2 mps 752 mmHg 80%
04:00 +13°C° 0 mm 1 mps 752 mmHg 82%
05:00 +14°C° 0 mm 1 mps 752 mmHg 78%
06:00 +15°C° 0 mm 1 mps 752 mmHg 73%
07:00 +16°C° 0 mm 1 mps 752 mmHg 69%
08:00 +19°C° 0 mm 1 mps 752 mmHg 62%
09:00 +21°C° 0 mm 1 mps 752 mmHg 55%
10:00 +23°C° 0 mm 2 mps 751 mmHg 48%
11:00 +24°C° 0 mm 2 mps 751 mmHg 44%
12:00 +26°C° 0 mm 1 mps 751 mmHg 39%
13:00 +27°C° 0 mm 1 mps 750 mmHg 35%
14:00 +27°C° 0 mm 1 mps 750 mmHg 35%
15:00 +27°C° 0 mm 1 mps 749 mmHg 35%
16:00 +27°C° 0 mm 2 mps 749 mmHg 34%
17:00 +26°C° 0 mm 1 mps 749 mmHg 40%
18:00 +25°C° 0 mm 1 mps 748 mmHg 46%
19:00 +24°C° 0 mm 1 mps 748 mmHg 51%
20:00 +22°C° 0 mm 1 mps 748 mmHg 55%
21:00 +20°C° 0 mm 1 mps 748 mmHg 58%
22:00 +19°C° 0 mm 1 mps 748 mmHg 62%
23:00 +18°C° 0 mm 1 mps 748 mmHg 64%

Day after tomorrow, 14 July, Tuesday

Time Temperature Precipitation Wind Pressure Humidity
00:00 +16°C° 0 mm 1 mps 748 mmHg 66%
01:00 +16°C° 0 mm 1 mps 748 mmHg 68%
02:00 +15°C° 0 mm 1 mps 748 mmHg 71%
03:00 +14°C° 0 mm 0 mps 747 mmHg 73%
04:00 +13°C° 0 mm 0 mps 747 mmHg 76%
05:00 +15°C° 0 mm 0 mps 747 mmHg 72%
06:00 +16°C° 0 mm 0 mps 747 mmHg 69%
07:00 +17°C° 0 mm 0 mps 747 mmHg 66%
08:00 +19°C° 0 mm 0 mps 747 mmHg 60%
09:00 +21°C° 0 mm 0 mps 747 mmHg 54%
10:00 +23°C° 0 mm 0 mps 747 mmHg 48%
11:00 +25°C° 0 mm 1 mps 747 mmHg 45%
12:00 +26°C° 0 mm 1 mps 746 mmHg 42%
13:00 +26°C° 0 mm 1 mps 746 mmHg 40%
14:00 +26°C° 0 mm 1 mps 746 mmHg 39%
15:00 +26°C° 0 mm 1 mps 745 mmHg 39%
16:00 +26°C° 0 mm 2 mps 745 mmHg 39%
17:00 +25°C° 0 mm 1 mps 745 mmHg 44%
18:00 +25°C° 0 mm 1 mps 745 mmHg 48%
19:00 +24°C° 0 mm 1 mps 745 mmHg 53%
20:00 +23°C° 0 mm 1 mps 745 mmHg 55%
21:00 +22°C° 0 mm 1 mps 745 mmHg 57%
22:00 +20°C° 0 mm 1 mps 745 mmHg 59%
23:00 +20°C° 0 mm 1 mps 745 mmHg 62%

15 July, Wednesday

Time Temperature Precipitation Wind Pressure Humidity
00:00 +19°C° 0 mm 1 mps 745 mmHg 65%
01:00 +18°C° 0 mm 1 mps 744 mmHg 68%
02:00 +18°C° 0 mm 1 mps 744 mmHg 70%
03:00 +18°C° 0 mm 1 mps 744 mmHg 71%
04:00 +18°C° 0 mm 1 mps 744 mmHg 72%
05:00 +17°C° 0.1 mm 2 mps 744 mmHg 72%
06:00 +18°C° 0.1 mm 2 mps 744 mmHg 72%
07:00 +18°C° 0.1 mm 3 mps 744 mmHg 72%
08:00 +18°C° 0.7 mm 3 mps 744 mmHg 77%
09:00 +17°C° 0.7 mm 2 mps 744 mmHg 82%
10:00 +17°C° 0.7 mm 2 mps 744 mmHg 87%
11:00 +18°C° 0.5 mm 3 mps 744 mmHg 83%
12:00 +19°C° 0.5 mm 4 mps 744 mmHg 79%
13:00 +20°C° 0.5 mm 4 mps 744 mmHg 75%
14:00 +19°C° 0.4 mm 4 mps 744 mmHg 76%
15:00 +19°C° 0.4 mm 4 mps 744 mmHg 77%
16:00 +18°C° 0.4 mm 3 mps 744 mmHg 78%
17:00 +18°C° 0 mm 3 mps 744 mmHg 77%
18:00 +18°C° 0 mm 3 mps 744 mmHg 77%
19:00 +17°C° 0 mm 3 mps 745 mmHg 76%
20:00 +17°C° 0.1 mm 2 mps 745 mmHg 77%
21:00 +17°C° 0.1 mm 2 mps 745 mmHg 78%
22:00 +16°C° 0.1 mm 2 mps 746 mmHg 79%
23:00 +16°C° 0 mm 2 mps 746 mmHg 80%

16 July, Thursday

Time Temperature Precipitation Wind Pressure Humidity
00:00 +15°C° 0 mm 1 mps 746 mmHg 82%
01:00 +15°C° 0 mm 1 mps 747 mmHg 84%
02:00 +15°C° 0 mm 1 mps 747 mmHg 85%
03:00 +14°C° 0 mm 1 mps 747 mmHg 85%
04:00 +14°C° 0 mm 1 mps 747 mmHg 86%
05:00 +14°C° 0 mm 1 mps 747 mmHg 84%
06:00 +15°C° 0 mm 1 mps 747 mmHg 82%
07:00 +15°C° 0 mm 1 mps 748 mmHg 80%
08:00 +18°C° 0 mm 1 mps 748 mmHg 74%
09:00 +19°C° 0 mm 1 mps 748 mmHg 67%
10:00 +20°C° 0 mm 1 mps 748 mmHg 61%
11:00 +20°C° 0 mm 2 mps 748 mmHg 56%
12:00 +21°C° 0 mm 2 mps 748 mmHg 52%
13:00 +21°C° 0 mm 2 mps 748 mmHg 48%
14:00 +23°C° 0 mm 2 mps 748 mmHg 47%
15:00 +23°C° 0 mm 2 mps 747 mmHg 47%
16:00 +23°C° 0 mm 2 mps 747 mmHg 47%
17:00 +23°C° 0 mm 2 mps 747 mmHg 51%
18:00 +22°C° 0 mm 1 mps 747 mmHg 55%
19:00 +22°C° 0 mm 1 mps 747 mmHg 59%
20:00 +20°C° 0 mm 1 mps 748 mmHg 64%
21:00 +18°C° 0 mm 1 mps 748 mmHg 68%
22:00 +15°C° 0 mm 0 mps 748 mmHg 73%
23:00 +14°C° 0 mm 0 mps 748 mmHg 75%

17 July, Friday

Time Temperature Precipitation Wind Pressure Humidity
00:00 +15°C° 0 mm 1 mps 748 mmHg 77%
01:00 +14°C° 0 mm 1 mps 748 mmHg 79%
02:00 +13°C° 0 mm 0 mps 748 mmHg 81%
03:00 +12°C° 0 mm 0 mps 748 mmHg 82%
04:00 +12°C° 0 mm 0 mps 749 mmHg 83%
05:00 +13°C° 0 mm 0 mps 749 mmHg 80%
06:00 +15°C° 0 mm 1 mps 749 mmHg 76%
07:00 +18°C° 0 mm 1 mps 749 mmHg 72%
08:00 +19°C° 0 mm 1 mps 749 mmHg 65%
09:00 +21°C° 0 mm 1 mps 749 mmHg 57%
10:00 +21°C° 0 mm 2 mps 749 mmHg 49%
11:00 +23°C° 0 mm 2 mps 749 mmHg 45%
12:00 +25°C° 0 mm 2 mps 749 mmHg 41%
13:00 +26°C° 0 mm 2 mps 749 mmHg 37%
14:00 +26°C° 0 mm 2 mps 749 mmHg 37%
15:00 +26°C° 0 mm 2 mps 749 mmHg 37%
16:00 +26°C° 0 mm 2 mps 749 mmHg 36%
17:00 +25°C° 0 mm 2 mps 749 mmHg 42%
18:00 +24°C° 0 mm 1 mps 749 mmHg 47%
19:00 +23°C° 0 mm 1 mps 749 mmHg 53%
20:00 +22°C° 0 mm 1 mps 749 mmHg 56%
21:00 +20°C° 0 mm 1 mps 749 mmHg 59%
22:00 +19°C° 0 mm 1 mps 750 mmHg 62%
23:00 +18°C° 0 mm 1 mps 750 mmHg 65%
Show more